{"data":{"norad_id":53408,"epoch":"2026-05-25T05:17:38.507712Z","epoch_age_seconds":49765,"freshness":"FRESH","line1":"1 53408U 22097W   26145.22058458  .00000531  00000+0  51428-4 0  9994","line2":"2 53408  53.2142 130.5649 0001148  71.6180 288.4937 15.08843391210202","mean_motion":15.08843391,"eccentricity":0.0001148,"inclination_deg":53.2142,"raan_deg":130.5649,"arg_perigee_deg":71.618,"mean_anomaly_deg":288.4937,"bstar":5.1428e-5,"rev_number":21020,"period_min":95.437340189801,"perigee_km":538.93885257435,"apogee_km":540.52719553187,"semimajor_km":6917.8700240531,"source":"CELESTRAK","updated_at":"2026-05-25T13:38:17.399799Z"}}